Regional Weather Roundup
Issued by NWS

Home | Current Version | Previous Version | Text Only | Print | Product List | Glossary Off
Versions: 1 2 3 4 5 6 7 8 9 10 11 12 13 14 15 16 17 18 19 20 21 22 23 24 25 26 27 28 29 30 31 32 33 34 35 36 37 38 39 40 41 42 43 44 45 46 47 48 49 50

000
ASUS43 KLSX 192357
RWRMO

WEATHER SUMMARY FOR MISSOURI
NATIONAL WEATHER SERVICE SPRINGFIELD MO
700 PM CDT SAT AUG 19 2017

NOTE: "FAIR" INDICATES FEW OR NO CLOUDS BELOW 12,000 FEET WITH NO
       SIGNIFICANT WEATHER AND/OR OBSTRUCTIONS TO VISIBILITY.
       CURRENT SKY AND/OR WEATHER CONDITIONS ARE NOT AVAILABLE FOR
       CHILLICOTHE AND FARMINGTON.

MOZ001>031-035>038-043-044-053-054-200100-
...NORTHERN AND WESTERN MISSOURI...

CITY           SKY/WX    TMP DP  RH WIND       PRES   REMARKS
KANSAS CTY INT SUNNY     86  70  58 SE10      29.90F HX  90
6HR MIN TEMP:  86; 6HR MAX TEMP:  91;

LEE`S SUMMIT   SUNNY     87  72  60 SE8       29.92S HX  93
6HR MIN TEMP:  87; 6HR MAX TEMP:  91;

ST JOSEPH      SUNNY     87  68  52 SE6       29.89S HX  90
6HR MIN TEMP:  85; 6HR MAX TEMP:  92;

CHILLICOTHE      N/A     85  63  47 CALM      29.91F
6HR MIN TEMP:  85; 6HR MAX TEMP:  93;


$$
MOZ066>068-077>081-088>096-101>105-200100-
...SOUTHWEST MISSOURI...

CITY           SKY/WX    TMP DP  RH WIND       PRES   REMARKS
SPRINGFIELD    CLOUDY    87  76  69 CALM      29.95R HX  97
6HR MIN TEMP:  87; 6HR MAX TEMP:  91;

JOPLIN         CLOUDY    88  76  67 S3        29.93R HX  99
6HR MIN TEMP:  88; 6HR MAX TEMP:  95;

BRANSON        PTSUNNY   90  73  58 CALM      29.96S HX  98

$$
MOZ032>034-039>042-045>050-055>058-069>072-200100-
...CENTRAL MISSOURI...

CITY           SKY/WX    TMP DP  RH WIND       PRES   REMARKS
COLUMBIA       NOT AVBL
JEFFERSON CITY SUNNY     89  70  53 NW3       29.90F HX  94
6HR MIN TEMP:  86; 6HR MAX TEMP:  91;

ROLLA          CLEAR     84  69  60 W3        29.96S
6HR MIN TEMP:  84; 6HR MAX TEMP:  90;

SEDALIA        SUNNY     87  74  64 CALM      29.94S HX  95
6HR MIN TEMP:  87; 6HR MAX TEMP:  93;

WARRENSBURG    SUNNY     86  70  58 SE3       29.92S HX  90

$$
MOZ051-052-059>065-200100-
...EAST CENTRAL MISSOURI...

CITY           SKY/WX    TMP DP  RH WIND       PRES   REMARKS
ST LOUIS INTL  PTCLDY    89  65  44 NE3       29.92S HX  91
6HR MIN TEMP:  87; 6HR MAX TEMP:  92;


$$
MOZ072>076-082>087-097>100-106>115-200100-
...SOUTH CENTRAL AND SOUTHEAST MISSOURI...

CITY           SKY/WX    TMP DP  RH WIND       PRES   REMARKS
CAPE GIRARDEAU CLEAR     87  72  60 CALM      29.91S HX  93
6HR MIN TEMP:  87; 6HR MAX TEMP:  92;

POPLAR BLUFF   CLEAR     85  77  77 CALM      29.91S HX  95
6HR MIN TEMP:  85; 6HR MAX TEMP:  93;

WEST PLAINS    CLOUDY    87  70  56 S5        29.96F HX  92
6HR MIN TEMP:  87; 6HR MAX TEMP:  94;


$$


USA.gov is the U.S. government's official web portal to all federal, state and local government web resources and services.